Location: Góry Miechowskie
(50.3599°N, 20.1803°E)
Time: 22:16:31
(UTC+00:00)

Vanguard 3 - Pass Details

Date: 19 September 2024
Orbit: 507 x 3224 km, 33.4° (Epoch: 02 October)

Event Time Altitude Azimuth Distance (km) Brightness Sun altitude
Rises 02:54:47 0° 204° (SSW) 6,179 11.2 -14.3°
Reaches altitude 10° 02:59:34 10° 192° (SSW) 5,513 11.1 -13.6°
Maximum altitude 03:12:42 27° 144° (SE) 4,800 11.3 -11.6°
Drops below altitude 10° 03:26:56 10° 97° (E) 6,049 12.9 -9.4°
Sets 03:32:28 0° 87° (E) 6,875 14.0 -8.6°
